Wind_Speed
25 22 21 17 17 13 13 9 8 7 6 5 5 4 5 5 5 7 8 9 12 12
24 23 22 21 18 15 11 9 9 8 6 5 4 5 5 4 7 7 9 10 12 13
27 24 23 21 18 16 14 11 11 9 7 6 6 6 5 6 7 8 10 11 13 16
26 26 24 22 19 14 13 12 11 10 8 7 6 6 7 7 8 9 11 13 15 15
29 27 23 21 16 15 14 12 11 11 10 7 7 6 8 8 8 10 12 13 14 16
29 26 22 21 19 17 15 14 12 11 10 9 8 8 8 7 8 10 11 11 12 15
28 26 24 23 20 18 16 14 11 11 11 10 10 8 8 8 8 9 12 9 12 12
29 28 26 23 21 18 16 14 13 13 12 8 8 11 11 9 9 9 9 10 10 12
31 29 25 24 21 19 17 17 16 15 15 13 9 12 13 9 10 10 9 9 8 9
30 29 27 24 23 21 19 18 18 16 14 11 12 12 12 11 10 11 10 9 8 8
31 30 27 25 25 23 20 19 17 14 13 11 12 13 13 12 11 11 10 9 8 9
32 32 28 27 26 23 20 18 16 15 13 10 12 13 15 11 9 8 9 11 9 9
26 29 28 28 26 23 21 20 17 13 12 9 10 11 11 10 9 10 7 7 8 11
26 27 29 26 24 24 21 19 16 14 12 11 8 10 11 9 11 9 10 9 4 7
Wind_Direction
148 143 144 143 141 141 143 139 129 113 103 86 72 68 69 47 37 31 34 31 23 6
145 142 143 139 147 140 140 140 128 117 113 102 93 73 70 73 51 44 40 38 25 18
144 146 150 144 140 146 148 148 131 131 130 123 98 90 98 80 59 57 47 37 32 25
144 149 148 146 147 147 147 141 136 139 128 115 107 104 97 84 68 64 52 43 39 28
150 152 151 143 146 149 148 144 143 132 122 121 122 105 91 86 73 68 55 45 42 32
155 157 151 146 153 157 152 147 139 135 131 131 118 103 91 85 81 66 67 49 45 39
157 159 156 154 158 158 154 143 142 141 135 125 112 96 99 94 82 71 63 57 48 38
164 158 157 156 156 155 148 153 155 147 135 119 120 131 112 98 89 87 79 69 54 51
165 159 158 154 155 150 153 159 157 149 138 130 106 122 109 106 112 97 85 72 61 52
164 160 158 153 154 157 162 162 149 144 146 133 114 109 109 99 98 95 86 81 70 56
165 160 156 162 158 160 165 159 157 148 140 133 117 116 110 107 100 97 97 90 73 62
172 162 162 160 163 168 159 149 151 149 146 144 135 140 133 124 113 94 82 79 79 72
167 161 163 166 165 164 158 155 151 149 155 155 158 159 158 145 152 139 122 82 62 66
166 163 166 163 160 157 156 153 153 154 157 163 172 169 176 153 149 159 154 135 103 76
Height
774 779 785 789 794 800 803 804 808 810 812 814 815 815 816 817 819 818 816 814 813 812
774 778 783 789 794 798 800 805 808 809 812 814 815 815 816 816 817 817 816 813 812 810
772 777 783 790 792 796 800 805 806 809 812 815 813 814 816 815 816 816 814 812 810 808
771 777 784 786 791 794 802 804 805 809 812 813 814 815 814 814 815 815 814 811 809 810
771 777 783 784 788 797 801 803 807 809 809 813 814 814 813 814 815 814 813 812 811 812
771 777 779 781 790 797 800 803 806 807 809 813 813 812 813 814 815 814 813 813 813 812
771 772 778 784 790 795 798 800 804 807 809 812 811 813 814 815 815 815 815 815 814 814
769 772 780 785 790 794 796 800 805 807 808 809 808 811 813 814 815 816 817 817 817 817
766 773 780 784 788 792 797 799 804 805 805 806 810 810 812 814 814 816 817 818 818 818
768 773 778 782 785 791 795 799 801 802 804 806 809 810 813 815 816 816 817 818 818 819
766 771 775 778 783 789 795 797 799 802 804 806 808 811 814 816 817 817 818 818 819 818
763 766 770 775 782 788 793 796 800 802 804 806 808 812 814 816 818 819 819 819 819 819
761 763 769 774 781 785 791 795 798 802 804 807 809 812 814 815 818 819 820 820 820 820
759 762 768 775 779 784 790 793 797 801 805 807 810 812 814 814 816 818 819 820 820 820